Flight Track Log - Related Links

Times and Time Zones

All times are in EDT time to prevent confusion due to time zone crossing. See the UAL5942 flight status page for this flight to view local times or setup timezone preferences in your user account.

Time Position Orientation Groundspeed Altitude Reporting Facility
EDT Latitude Longitude Course Direction KTS MPH feet Rate Location/Type
Tue 07:58:42 PM 35.9008 -78.7742 15° North 180 207 1,500  Level Washington Center
Tue 07:59:49 PM 35.9603 -78.7381 26° Northeast 203 234 4,400 2,637 Climbing Washington Center
Tue 08:00:13 PM 35.9772 -78.7258 30° Northeast 214 246 5,500 2,100 Climbing Washington Center
Tue 08:00:49 PM 36.0133 -78.7042 26° Northeast 252 290 6,500 2,327 Climbing Washington Center
Tue 08:01:00 PM 36.0971 -78.7007 11° North  Level FlightAware
Tue 08:01:51 PM 36.0850 -78.6789 16° North 284 327 9,300  Level Washington Center
Tue 08:02:00 PM 36.1703 -78.6675 19° North  Level FlightAware
Tue 08:02:51 PM 36.1606 -78.6611 11° North 279 321 11,200  Level Washington Center
Tue 08:03:00 PM 36.2460 -78.6351 19° North  Level FlightAware
Tue 08:03:49 PM 36.2550 -78.6392 11° North 317 365 12,500  Level Washington Center
Tue 08:04:00 PM 36.3232 -78.6089 15° North  Level FlightAware
Tue 08:04:50 PM 36.3517 -78.6144 12° North 341 392 14,000  Level Washington Center
Tue 08:05:50 PM 36.4528 -78.5797 15° North 361 415 15,600 1,513 Climbing Washington Center
Tue 08:06:49 PM 36.5558 -78.5450 15° North 366 421 17,000 1,361 Climbing Washington Center
Tue 08:07:49 PM 36.6589 -78.5047 17° North 377 434 18,300 1,000 Climbing Washington Center
Tue 08:08:49 PM 36.7539 -78.4669 18° North 383 441 19,000 347 Climbing Washington Center
Tue 08:09:50 PM 36.8472 -78.3925 33° Northeast 388 447 19,000  Level Washington Center
Tue 08:10:50 PM 36.9450 -78.3156 32° Northeast 399 459 19,000  Level Washington Center
Tue 08:11:51 PM 37.0472 -78.2281 34° Northeast 406 467 19,000  Level Washington Center
Tue 08:12:51 PM 37.1236 -78.1681 32° Northeast 406 467 19,000  Level Washington Center
Tue 08:13:51 PM 37.2256 -78.0803 34° Northeast 406 467 19,000  Level Washington Center
Tue 08:14:51 PM 37.3211 -78.0022 33° Northeast 406 467 19,000  Level Washington Center
Tue 08:15:49 PM 37.4144 -77.9217 34° Northeast 406 467 19,000  Level Washington Center
Tue 08:16:50 PM 37.5097 -77.8458 32° Northeast 406 467 19,000 -393 Level Washington Center
Tue 08:17:51 PM 37.6069 -77.7806 28° Northeast 401 461 18,200 -1,033 Descending Washington Center
Tue 08:18:52 PM 37.7081 -77.7233 24° Northeast 396 456 16,900 -1,932 Descending Washington Center
Tue 08:19:49 PM 37.8028 -77.6681 25° Northeast 384 442 14,400 -2,564 Descending Washington Center
Tue 08:20:49 PM 37.8933 -77.6153 25° Northeast 373 429 11,900 -2,132 Descending Washington Center
Tue 08:21:50 PM 37.9839 -77.5597 26° Northeast 360 414 10,100 -942 Descending Washington Center
Tue 08:22:50 PM 38.0808 -77.5094 22° Northeast 355 409 10,000 -50 Descending Washington Center
Tue 08:23:51 PM 38.1672 -77.4564 26° Northeast 345 397 10,000  Level Washington Center
Tue 08:24:52 PM 38.2469 -77.4106 24° Northeast 326 375 10,000 -610 Level Washington Center
Tue 08:25:49 PM 38.3164 -77.3675 26° Northeast 296 341 8,800 -1,017 Descending Washington Center
Tue 08:26:50 PM 38.3894 -77.3611 North 262 302 8,000 -393 Descending Washington Center
Tue 08:27:51 PM 38.4647 -77.3603 360° North 262 302 8,000 -555 Level Washington Center
Tue 08:28:49 PM 38.5375 -77.3647 357° North 262 302 6,900 -943 Descending Washington Center
Tue 08:30:11 PM 38.6500 -77.3667 359° North 259 298 5,800 -803 Descending Potomac TRACON
Tue 08:31:11 PM 38.7167 -77.3667 360° North 264 304 5,000 -350 Descending Potomac TRACON
Tue 08:32:11 PM 38.7833 -77.3500 11° North 260 299 5,100 -100 Climbing Potomac TRACON
Tue 08:33:11 PM 38.8667 -77.3500 360° North 274 315 4,800 -500 Descending Potomac TRACON
Tue 08:34:11 PM 38.9333 -77.3500 360° North 246 283 4,100 -350 Descending Potomac TRACON
Tue 08:35:11 PM 39.0000 -77.3500 360° North 221 254 4,100 -100 Level Potomac TRACON
Tue 08:36:11 PM 39.0500 -77.3500 360° North 223 257 3,900 -500 Descending Potomac TRACON
Tue 08:37:11 PM 39.1167 -77.3500 360° North 218 251 3,100 -900 Descending Potomac TRACON
Tue 08:38:11 PM 39.1667 -77.3667 346° North 239 275 2,100 -500 Descending Potomac TRACON
Tue 08:39:11 PM 39.1500 -77.4333 252° West 229 264 2,100  Level Potomac TRACON

Login

Don't have an account? Register now (free) for customized features, flight alerts, and more!